星链-1352 (STARLINK-1352 )

导读 | 豆包AI

STARLINK-1352是美国SpaceX公司星链卫星互联网项目的组网卫星,于2020年4月22日发射入轨。星链计划旨在构建全球覆盖的低轨卫星星座,为全球提供高速互联网接入服务,该卫星作为早期组网星,助力星座初步服务能力搭建,也推动了低轨卫星通信产业发展。

基本信息
目录编号:
45536
目录名称:
STARLINK-1352
国际标识:
2020-025F
轨道中心:
EARTH
卫星名称:
星链-1352
卫星全名:
星链-1352 (STARLINK-1352 )
卫星状态:
已陨落 最后检测时间 2025-06-27
发射日期:
2020-04-22 UTC
国别 :
美国 (US)
星等 :
--
轨道信息
数据来源 国际轨道数据
星历时间: 2025-06-26T22:24:27+0800
轨道信息已过期260天
半长轴: 6538.488km
偏心率: 0.0005072
轨道倾角: 53.038°
近地点辐角 160.466°
升交点赤经 117.343°
平近点角 16.971°
近地点: 157.036km
远地点: 163.67km
周期: 87.695分钟
每日圈数: 16.420517
详细信息
固有亮度:
5
最大亮度:
2.5
卫星平台:
Starlink V1.0
覆盖范围:
全球
运营商:
太空探索技术公司
运营商所在国:
美国
制造商(研发单位):
太空探索技术公司
制造商所在国:
美国
使用方式:
暂无
卫星简介
星链(Starlink)计划是由太空探索技术公司(SpaceX)提出的一个巨型低轨卫星互联网星座项目,计划在2019年至2024年间在太空搭建由约1.2万颗卫星组成的“星链”网络,其中1584颗将部署在地球上空550千米处的近地轨道,并从2020年开始工作。该卫星仍在工作。